Hourly Weather Roundup
Issued by NWS Central Illinois

Home | Current Version | Previous Version | Text Only | Print | Product List | Glossary On
Versions: 1 2 3 4 5 6 7 8 9 10 11 12 13 14 15 16 17 18 19 20 21 22 23 24 25 26 27 28 29 30 31 32 33 34 35 36 37 38 39 40 41 42 43 44 45 46 47 48 49 50
000
NZUS43 KILX 271110
HWRILX

AREA WEATHER ROUNDUP
NATIONAL WEATHER SERVICE, LINCOLN IL
600 AM CDT MON JUL 27 2015


CITY           SKY/WX    TMP DP  RH WIND       PRES   REMARKS
BLOOMINGTON    FOG       70  70 100 E8        29.97S VSB<1/4
CHAMPAIGN      FOG       69  69 100 VRB5      29.96R VSB<1/4
DANVILLE       LGT RAIN  69  69 100 NE3       29.94S VSB 1/4
DECATUR        PTCLDY    69  67  93 E3        29.95S FOG
EFFINGHAM      CLOUDY    75  72  91 CALM      29.95S FOG
FLORA          CLEAR     74  73  98 CALM      29.94R FOG
GALESBURG      MOCLDY    68  67  98 CALM      29.95R FOG
JACKSONVILLE   CLOUDY    72  71  96 E3        29.93S FOG
LACON          FOG       68  67  97 CALM      29.95S VSB<1/4
LAWRENCEVILLE  CLOUDY    74  73  97 SW5       29.94S
LITCHFIELD       N/A     73  71  95 CALM      29.93S FOG
$$


CITY           SKY/WX    TMP DP  RH WIND       PRES   REMARKS
LINCOLN        PTCLDY    69  68  96 CALM      29.95R FOG
MACOMB         FOG       69  69 100 CALM      29.96S VSB 1/4
MATTOON        FOG       69  67  93 NE6       29.94S VSB 1/4
MT CARMEL AP   CLOUDY    77  72  83 CALM      29.94F
OLNEY-NOBLE AP CLOUDY    73  73 100 CALM      29.95R
PARIS          FOG       69  69 100 NE3       29.96S VSB<1/4
PEORIA         FOG       73  70  90 NE7       29.94S VSB 1/4
PONTIAC        CLOUDY    72  72  99 E5        29.97S FOG
RANTOUL        FOG       72  71  99 E7        29.96S VSB 1/4
ROBINSON       LGT RAIN  73  72  98 CALM      29.95S
SPRINGFIELD    CLEAR     73  71  93 CALM      29.94S
TAYLORVILLE    FOG       70  70 100 CALM      29.94S VSB 1/2
$$

...REGIONAL REPORTS...


CITY           SKY/WX    TMP DP  RH WIND       PRES   REMARKS
CHICAGO O`HARE MOCLDY    69  67  93 N5        29.98R
KANKAKEE       FOG       69  69  99 CALM      29.98R VSB 1
MOLINE         MOCLDY    67  64  90 E5        29.95S
MOUNT STERLING NOT AVBL
MOUNT VERNON   MOCLDY    73  68  83 W7        29.95S
PITTSFIELD     FOG       74  73  95 CALM      29.93S VSB<1/4
QUINCY         PTCLDY    74  73  97 E6        29.92S FOG
ROCKFORD       MOCLDY    66  60  81 CALM      30.00R
$$


CITY           SKY/WX    TMP DP  RH WIND       PRES   REMARKS
BURLINGTON     PTCLDY    71  71 100 E5        29.94R FOG
CEDAR RAPIDS   PTCLDY    68  68 100 E6        29.94S HAZE
DES MOINES     MOCLDY    76  71  85 SE6       29.91R
KIRKSVILLE     MOCLDY    74  72  93 E5        29.93R
OTTUMWA        CLOUDY    72  72 100 E5        29.91R FOG
ST LOUIS       MOCLDY    81  75  83 CALM      29.92S HX  86
$$


CITY           SKY/WX    TMP DP  RH WIND       PRES   REMARKS
TERRE HAUTE    FOG       69  68  96 CALM      29.94F VSB 1/2
EVANSVILLE     RAIN      76  74  93 SW3       29.98R FOG
INDIANAPOLIS   CLOUDY    72  68  87 E5        29.96S
LAFAYETTE      MOCLDY    69  68  96 CALM      29.96S FOG
MADISON        MOCLDY    61  58  90 CALM      30.00S
MILWAUKEE      PTCLDY    66  60  81 CALM      30.00S
$$




USA.gov is the U.S. government's official web portal to all federal, state and local government web resources and services.